User: anonymous   Login
Location: Unspecified
(0.0000°N, 0.0000°E)
Time: 22:56:46
(UTC+01:00)
Language:

CZ-4 R/B - Orbit

View from above orbital plane
View from above orbital plane
View from above satellite
View from above satellite

Ground track
Ground track

The orbit data is extracted from the following two-line orbital elements,

1 28059U 03049C   17328.27292959 +.00000024 +00000-0 +17620-4 0  9992
2 28059 098.5397 217.2125 0051165 118.2627 351.7424 14.52508123746927
Epoch (UTC): 24 November 2017 06:33:01
Eccentricity: 0.0051165
inclination: 98.5397°
perigee height: 681 km
apogee height: 754 km
right ascension of ascending node: 217.2125°
argument of perigee: 118.2627°
revolutions per day: 14.52508123
mean anomaly at epoch: 351.7424°
orbit number at epoch: 74692

The dashed part of the orbit path shows where the satellite is in the earth's shadow,  

DLR